K3ZED-2 Weather Reports


Display with metric or nautical units.
time (UTC)temp
F
wind
direction
speed
MPH
gust
MPH
rain 1hr
in
rain 24hr
in
rain mn
in
humidity
%
barometer
mb
20260903230046 81 225 0.0 1.0 0.00 0.28 0.28 80 1013.6
20260903224539 82 229 0.0 5.0 0.00 0.28 0.28 77 1013.2
20260903223040 83 266 0.0 4.0 0.00 0.28 0.28 74 1013.1
20260903221539 84 235 0.0 4.0 0.00 0.28 0.28 72 1013.1
20260903220044 86 224 0.0 5.0 0.00 0.28 0.28 75 1013.1
20260903214543 86 233 0.0 8.0 0.00 0.28 0.28 77 1013.2
20260903213038 86 214 0.0 2.0 0.00 0.28 0.28 77 1012.9
20260903211539 87 193 1.0 6.0 0.00 0.28 0.28 75 1012.9
20260903210043 87 214 1.0 6.0 0.00 0.28 0.28 74 1012.8
20260903204535 87 216 0.0 7.0 0.00 0.28 0.28 73 1013.0
20260903203033 87 237 0.0 7.0 0.00 0.28 0.28 75 1013.1
20260903201533 87 235 0.0 2.0 0.00 0.28 0.28 77 1013.4
20260903200059 86 297 1.0 12.0 0.00 0.28 0.28 71 1013.6
20260903194527 86 298 0.0 13.0 0.00 0.28 0.28 71 1013.7
20260903193026 86 310 0.0 2.0 0.00 0.28 0.28 73 1013.8
20260903191527 86 253 0.0 1.0 0.00 0.28 0.28 75 1014.0
20260903190020 85 243 1.0 6.0 0.00 0.28 0.28 76 1014.2
20260903184518 85 239 0.0 7.0 0.00 0.32 0.28 77 1014.4
20260903183014 84 248 0.0 8.0 0.00 0.32 0.28 79 1014.6
20260903181512 83 227 0.0 8.0 0.00 0.32 0.28 79 1014.8
20260903180009 82 247 0.0 8.0 0.00 0.32 0.28 80 1014.7
20260903174506 81 317 0.0 4.0 0.00 0.68 0.28 82 1014.7
20260903173004 80 296 0.0 5.0 0.00 0.68 0.28 81 1014.9
20260903171616 80 278 0.0 3.0 0.00 0.68 0.28 82 1015.1
20260903171500 80 276 0.0 3.0 0.00 0.68 0.28 82 1015.2
20260903170059 80 295 2.0 7.0 0.00 0.68 0.28 82 1015.7
20260903164604 79 215 1.0 8.0 0.00 0.68 0.28 88 1015.3
20260903163053 78 243 2.0 10.0 0.00 0.68 0.28 87 1016.0
20260903161554 77 208 3.0 10.0 0.00 0.68 0.28 88 1016.2
20260903160047 76 272 1.0 10.0 0.00 0.68 0.28 88 1016.9
20260903154544 75 311 3.0 9.0 0.00 0.68 0.28 90 1017.1
20260903153043 75 282 4.0 13.0 0.00 0.68 0.28 91 1017.2
20260903151543 75 300 4.0 14.0 0.00 0.68 0.28 91 1016.9
20260903150042 75 266 4.0 11.0 0.00 0.68 0.28 91 1017.2
20260903144540 75 230 1.0 8.0 0.00 0.68 0.28 91 1016.7
20260903143101 75 245 1.0 11.0 0.00 0.68 0.28 93 1016.4
20260903141535 75 264 3.0 12.0 0.00 0.68 0.28 94 1016.2
20260903140033 75 226 0.0 9.0 0.00 0.68 0.28 95 1016.0
20260903134523 74 206 2.0 17.0 0.00 0.68 0.28 95 1016.0